Current weather by "City, St" or "zip code"  
 

Current Conditions: Monroe County Airport, MS

Fair


75.0 F

Last Updated on Sep 18 2020, 11:55 am CDT
Humidity: 78%
Wind Speed: NE 10.4 mph
Barometer 30.06 in
Dewpoint: 68.0 F
Visibility: 10.00 mi
Precip: --
Heat Index: NA
Wind Chill: NA
Current conditions at:

Monroe County Airport, MS (KM40)

Lat: 33.87375 Lon: 88.489667

Local Radar Image active severe weather and emergency alerts image image weather storm and storm spotter reports image weather observation monitoring service image
Local
Radar
Active
Alerts
Storm Reports Obs
Monitoring

Sign-up For Email & Text Message Weather Alert Notification Services



Advertise Here

Observation History for Monroe County Airport, MS


Time Wind
(mph)
Vis
(mi)
Weather Precip (in) Temperature (F) Relative
Humidity
Wind
Chill
(F)
Heat
Index
(F)
Pressure
Air Dwpt altimeter
(in)
sea level
(mb)
Rmks
11:55 am CDT NE 10.4 10.00 Fair -- 75.0 68.0 78% NA NA 30.06 M
10:55 am CDT N 8.1 G 15.0 10.00 Fair -- 73.0 69.8 89% NA NA 30.06 M
9:55 am CDT N 9.2 10.00 Fair -- 72.0 69.8 94% NA NA 30.05 M
8:55 am CDT N 6.9 10.00 Fair -- 66.0 66.2 100% NA NA 30.04 M
7:55 am CDT N 5.8 10.00 Fair -- 63.0 62.6 100% 63 NA 30.02 M
6:55 am CDT N 4.6 9.00 Fair -- 59.0 59.0 100% 59 NA 30.00 M
5:35 am CDT N 4.6 5.00 Fog/Mist -- 59.0 59.0 100% 59 NA 29.98 M
4:55 am CDT N 0.0 7.00 A Few Clouds -- 59.0 59.0 100% NA NA 29.97 M
3:55 am CDT N 4.6 10.00 Fair -- 61.0 60.8 100% 61 NA 29.95 M
2:55 am CDT N 0.0 10.00 Fair -- 61.0 60.8 100% NA NA 29.95 M
1:55 am CDT N 0.0 10.00 Fair -- 63.0 62.6 100% NA NA 29.95 M
12:55 am CDT N 0.0 10.00 Fair -- 61.0 60.8 100% NA NA 29.95 M
11:35 pm CDT N 0.0 10.00 Fair -- 64.0 64.4 100% NA NA 29.95 M
10:55 pm CDT N 0.0 10.00 Fair -- 66.0 64.4 94% NA NA 29.94 M
9:55 pm CDT N 4.6 10.00 Fair -- 70.0 66.2 88% NA NA 29.94 M
8:55 pm CDT N 6.9 G 12.7 10.00 Fair -- 73.0 66.2 78% NA NA 29.93 M
7:55 pm CDT N 10.4 10.00 Fair -- 77.0 71.6 83% NA NA 29.91 M
6:55 pm CDT N 5.8 10.00 Fair -- 77.0 73.4 89% NA NA 29.89 M
5:55 pm CDT N 5.8 10.00 A Few Clouds -- 81.0 64.4 58% NA 83 29.87 M
4:55 pm CDT N 8.1 G 15.0 10.00 Mostly Cloudy -- 82.0 64.4 55% NA 83 29.87 M
3:55 pm CDT N 12.7 10.00 Fair -- 86.0 68.0 55% NA 89 29.86 M
2:55 pm CDT NW 12.7 10.00 Partly Cloudy -- 86.0 68.0 55% NA 89 29.87 M
1:55 pm CDT N 12.7 10.00 Mostly Cloudy -- 86.0 68.0 55% NA 89 29.88 M
12:55 pm CDT N 8.1 10.00 Mostly Cloudy -- 84.0 66.2 55% NA 86 29.89 M

Regional Weather Observation


Monroe County Airport, MS (KM40)

Fair
75.0 F

Columbus Air Force Base, MS (KCBM)

Fair
79.0 F

George M Bryan Airport, Starkville, MS (KSTF)

Fair
77.0 F

Columbus/West Point/Starkville, Golden Triangle Regional Airport, MS (KGTR)

Fair
80.0 F

Corinth, MS (KCRX)

A Few Clouds
75.0 F

Oxford, University-Oxford Airport, MS (KUOX)

Fair
77.0 F